Location: Unspecified
(42.5000°N, 12.5000°E)
Time: 21:46:17
(UTC+01:00)

BlueWalker 3 - Visible Passes

Search period start: 02 February 2023 00:00
Search period end: 12 February 2023 00:00
Orbit: 499 x 517 km, 53.2° (Epoch: 01 February)

Date Brightness Start Highest point End Pass type
(mag) Time Alt. Az. Time Alt. Az. Time Alt. Az.
02 Feb 3.9 18:10:15 10° WNW 18:13:08 19° NNW 18:16:01 10° NE visible
02 Feb 4.5 19:50:06 10° NW 19:51:11 14° NNW 19:51:11 14° NNW visible
03 Feb 4.1 19:31:09 10° NW 19:33:03 17° N 19:33:03 17° N visible
04 Feb 3.8 19:12:12 10° NW 19:14:55 19° N 19:14:55 19° N visible
05 Feb 3.7 18:53:14 10° NW 18:56:05 19° NNE 18:56:49 18° NNE visible
05 Feb 5.2 20:31:35 10° NW 20:31:36 10° NW 20:31:36 10° NW visible
06 Feb 3.7 18:34:16 10° NW 18:37:08 19° NNE 18:38:44 15° NE visible
06 Feb 4.6 20:12:36 10° NW 20:13:32 16° NW 20:13:32 16° NW visible
07 Feb 3.7 18:15:17 10° NW 18:18:11 20° NNE 18:20:43 12° ENE visible
07 Feb 3.8 19:53:37 10° NW 19:55:31 26° NW 19:55:31 26° NW visible
08 Feb 2.7 19:34:36 10° NW 19:37:34 44° NNW 19:37:34 44° NNW visible
09 Feb 1.9 19:15:36 10° NW 19:19:27 61° NNE 19:19:42 59° NE visible
10 Feb 1.9 18:56:35 10° NW 19:00:27 64° NE 19:01:58 34° ESE visible
10 Feb 5.0 20:35:56 10° W 20:36:47 14° W 20:36:47 14° W visible
11 Feb 1.9 18:37:33 10° NW 18:41:26 67° NE 18:44:22 17° ESE visible
11 Feb 4.5 20:17:00 10° W 20:19:12 18° WSW 20:19:12 18° WSW visible
